Weather History for KRZL - February, 2013

Change the Weather History Date:

Saturday, February 2, 2013

  Actual Average (KVPZ) Record (KVPZ)
Temperature  
Mean Temperature 19 °F 24 °F  
Max Temperature 28 °F 32 °F 43 °F (1998)
Min Temperature 10 °F 17 °F 0 °F (2001)
Degree Days  
Heating Degree Days 46 41  
Month to date heating degree days 82  
Since 1 July heating degree days 3767  
Cooling Degree Days 0 0  
Month to date cooling degree days 0  
Year to date cooling degree days 0  
Moisture  
Dew Point 18 °F    
Average Humidity 87    
Maximum Humidity 100    
Minimum Humidity 73    
Precipitation  
Precipitation 0.00 in 0.04 in 0.10 in (2004)
Month to date precipitation 0.08  
Year to date precipitation 1.83  
Sea Level Pressure  
Sea Level Pressure 30.06 in    
Wind  
Wind Speed 11 mph (WSW)    
Max Wind Speed 15 mph    
Max Gust Speed 21 mph    
Visibility 7 miles    
Events Snow    
T = Trace of Precipitation, MM = Missing Value Source: NWS Daily Summary

Daily Weather History Graph

Daily Weather History Graph

Search for Another Location

Airport or City:

Trip Planner

Search our weather history database for the weather conditions in past years. The results will help you decide how hot, cold, wet, or windy it might be!

Date:

Astronomy

Feb. 02, 2013 Rise Set
Actual Time 6:57 AM CST 5:07 PM CST
Civil Twilight 6:28 AM CST 5:36 PM CST
Nautical Twilight 5:56 AM CST 6:09 PM CST
Astronomical Twilight 5:24 AM CST 6:41 PM CST
Moon No Moon Rise 10:04 AM CST (2/2)
Length of Visible Light 11h 07m
Length of Day
10h 09m
Waning Gibbous, 59% of the Moon is Illuminated
Feb 2
Waning Gibbous
Feb 3
Last Quarter
Feb 10
New
Feb 17
First Quarter
Feb 25
Full

Hourly Weather History & Observations

Time (CST) Temp. Windchill Dew Point Humidity Pressure Visibility Wind Dir Wind Speed Gust Speed Precip Events Conditions
12:15 AM 21.2 °F 9.5 °F 15.8 °F 80% 30.20 in 4.0 mi SSW 11.5 mph 17.3 mph N/A Snow Light Snow
12:35 AM 21.2 °F 8.9 °F 17.6 °F 86% 30.19 in 3.0 mi SSW 12.7 mph - N/A Snow Light Snow
12:55 AM 21.2 °F 11.7 °F 17.6 °F 86% 30.19 in 3.0 mi SSW 8.1 mph - N/A Snow Light Snow
1:15 AM 21.2 °F 11.7 °F 17.6 °F 86% 30.19 in 5.0 mi SSW 8.1 mph - N/A Snow Light Snow
1:35 AM 21.2 °F 10.1 °F 17.6 °F 86% 30.19 in 4.0 mi SSW 10.4 mph - N/A Snow Light Snow
1:55 AM 21.2 °F 10.1 °F 19.4 °F 93% 30.19 in 5.0 mi SSW 10.4 mph - N/A Snow Light Snow
2:15 AM 21.2 °F 8.9 °F 19.4 °F 93% 30.18 in 4.0 mi SSW 12.7 mph 17.3 mph N/A Snow Light Snow
2:35 AM 21.2 °F 8.9 °F 19.4 °F 93% 30.16 in 3.0 mi South 12.7 mph 17.3 mph N/A Snow Light Snow
2:55 AM 21.2 °F 7.8 °F 19.4 °F 93% 30.14 in 3.0 mi South 15.0 mph - N/A Snow Light Snow
3:15 AM 21.2 °F 8.3 °F 19.4 °F 93% 30.12 in 2.0 mi South 13.8 mph - N/A Snow Light Snow
3:35 AM 21.2 °F 8.9 °F 19.4 °F 93% 30.09 in 2.5 mi South 12.7 mph 18.4 mph N/A Snow Light Snow
3:55 AM 21.2 °F 7.8 °F 19.4 °F 93% 30.09 in 1.5 mi South 15.0 mph 20.7 mph N/A Snow Light Snow
4:15 AM 21.2 °F 8.3 °F 19.4 °F 93% 30.09 in 3.0 mi South 13.8 mph 19.6 mph N/A Snow Light Snow
4:35 AM 21.2 °F 8.3 °F 19.4 °F 93% 30.08 in 5.0 mi South 13.8 mph - N/A Snow Light Snow
4:55 AM 21.2 °F 8.9 °F 19.4 °F 93% 30.08 in 7.0 mi South 12.7 mph - N/A   Overcast
5:15 AM 23.0 °F 10.1 °F 19.4 °F 86% 30.07 in 7.0 mi South 15.0 mph - N/A   Overcast
5:35 AM 23.0 °F 10.1 °F 19.4 °F 86% 30.06 in 10.0 mi South 15.0 mph 19.6 mph N/A   Overcast
5:55 AM 23.0 °F 10.1 °F 19.4 °F 86% 30.05 in 7.0 mi South 15.0 mph - N/A   Overcast
6:15 AM 23.0 °F 11.1 °F 19.4 °F 86% 30.05 in 7.0 mi South 12.7 mph - N/A   Overcast
6:35 AM 23.0 °F 11.7 °F 21.2 °F 93% 30.04 in 4.0 mi SSW 11.5 mph - N/A Snow Light Snow
6:55 AM 23.0 °F 12.4 °F 21.2 °F 93% 30.04 in 5.0 mi SSW 10.4 mph - N/A Snow Light Snow
7:15 AM 23.0 °F 11.1 °F 21.2 °F 93% 30.04 in 7.0 mi SSW 12.7 mph - N/A Snow Light Snow
7:35 AM 23.0 °F 11.7 °F 21.2 °F 93% 30.04 in 1.5 mi SSW 11.5 mph - N/A Snow Light Snow
7:55 AM 23.0 °F 12.4 °F 21.2 °F 93% 30.04 in 1.8 mi SSW 10.4 mph - N/A Snow Light Snow
8:15 AM 23.0 °F 12.4 °F 21.2 °F 93% 30.04 in 1.0 mi SSW 10.4 mph 16.1 mph N/A Snow Light Snow
8:35 AM 23.0 °F 11.7 °F 23.0 °F 100% 30.03 in 5.0 mi SSW 11.5 mph - N/A Snow Light Snow
8:55 AM 24.8 °F 14.0 °F 23.0 °F 93% 30.03 in 7.0 mi SSW 11.5 mph - N/A   Overcast
9:15 AM 24.8 °F 14.0 °F 23.0 °F 93% 30.02 in 10.0 mi SW 11.5 mph - N/A   Overcast
9:35 AM 24.8 °F 14.6 °F 23.0 °F 93% 30.01 in 10.0 mi SSW 10.4 mph - N/A   Overcast
9:55 AM 26.6 °F 16.8 °F 23.0 °F 86% 30.01 in 10.0 mi SW 10.4 mph - N/A   Overcast
10:15 AM 26.6 °F 16.8 °F 23.0 °F 86% 30.01 in 10.0 mi SW 10.4 mph - N/A   Overcast
10:35 AM 26.6 °F 16.8 °F 23.0 °F 86% 30.01 in 10.0 mi SW 10.4 mph - N/A   Overcast
10:55 AM 26.6 °F 16.8 °F 23.0 °F 86% 30.01 in 10.0 mi SW 10.4 mph - N/A   Overcast
11:15 AM 26.6 °F 16.8 °F 23.0 °F 86% 30.00 in 10.0 mi WSW 10.4 mph - N/A   Overcast
11:35 AM 28.4 °F 19.1 °F 23.0 °F 80% 29.99 in 10.0 mi West 10.4 mph - N/A   Overcast
11:55 AM 28.4 °F 19.1 °F 24.8 °F 86% 29.99 in 10.0 mi West 10.4 mph - N/A   Overcast
12:15 PM 28.4 °F 21.2 °F 23.0 °F 80% 29.98 in 10.0 mi West 6.9 mph - N/A   Overcast
12:35 PM 28.4 °F 19.7 °F 23.0 °F 80% 29.98 in 10.0 mi West 9.2 mph - N/A   Overcast
12:55 PM 28.4 °F 19.1 °F 23.0 °F 80% 29.98 in 10.0 mi WNW 10.4 mph - N/A   Overcast
1:15 PM 28.4 °F 21.2 °F 23.0 °F 80% 29.98 in 10.0 mi NW 6.9 mph - N/A   Overcast
1:35 PM 28.4 °F 19.7 °F 23.0 °F 80% 29.98 in 10.0 mi NW 9.2 mph - N/A   Overcast
1:55 PM 28.4 °F 18.5 °F 23.0 °F 80% 29.99 in 10.0 mi WNW 11.5 mph 18.4 mph N/A   Overcast
2:15 PM 28.4 °F 20.4 °F 23.0 °F 80% 29.99 in 10.0 mi WNW 8.1 mph - N/A Snow Light Snow
2:35 PM 28.4 °F 21.2 °F 23.0 °F 80% 29.99 in 5.0 mi WNW 6.9 mph - N/A Snow Light Snow
2:55 PM 26.6 °F 20.0 °F 23.0 °F 86% 29.99 in 2.5 mi NNW 5.8 mph - N/A Snow Light Snow
3:15 PM 26.6 °F 19.1 °F 23.0 °F 86% 30.00 in 3.0 mi NNW 6.9 mph - N/A Snow Light Snow
3:35 PM 24.8 °F 15.3 °F 23.0 °F 93% 30.01 in 1.8 mi NNW 9.2 mph - N/A Snow Light Snow
3:55 PM 24.8 °F 16.1 °F 21.2 °F 86% 30.02 in 3.0 mi NNW 8.1 mph - N/A Snow Light Snow
4:15 PM 23.0 °F 15.8 °F 21.2 °F 93% 30.02 in 3.0 mi NNW 5.8 mph - N/A Snow Light Snow
4:35 PM 23.0 °F 12.4 °F 21.2 °F 93% 30.03 in 2.5 mi NW 10.4 mph - N/A Snow Light Snow
4:55 PM 23.0 °F 13.1 °F 21.2 °F 93% 30.04 in 3.0 mi NW 9.2 mph - N/A Snow Light Snow
5:35 PM 21.2 °F 11.7 °F 19.4 °F 93% 30.04 in 7.0 mi WNW 8.1 mph - N/A Snow Light Snow
6:15 PM 21.2 °F 10.9 °F 17.6 °F 86% 30.05 in 10.0 mi WNW 9.2 mph - N/A Snow Light Snow
6:55 PM 17.6 °F 5.0 °F 14.0 °F 86% 30.07 in 10.0 mi West 11.5 mph - N/A Snow Light Snow
7:15 PM 17.6 °F 5.0 °F 14.0 °F 86% 30.08 in 10.0 mi West 11.5 mph - N/A Snow Light Snow
7:35 PM 15.8 °F 1.4 °F 12.2 °F 86% 30.08 in 10.0 mi West 13.8 mph - N/A Snow Light Snow
7:55 PM 14.0 °F 1.2 °F 10.4 °F 86% 30.08 in 10.0 mi West 10.4 mph 16.1 mph N/A Snow Light Snow
8:15 PM 14.0 °F 0.5 °F 10.4 °F 86% 30.08 in 10.0 mi WNW 11.5 mph 17.3 mph N/A Snow Light Snow
8:35 PM 14.0 °F 2.0 °F 10.4 °F 86% 30.07 in 10.0 mi WNW 9.2 mph - N/A   Overcast
8:55 PM 14.0 °F 3.9 °F 10.4 °F 86% 30.06 in 10.0 mi WNW 6.9 mph - N/A   Overcast
9:15 PM 12.2 °F 2.9 °F 8.6 °F 85% 30.07 in 10.0 mi West 5.8 mph - N/A   Mostly Cloudy
9:35 PM 12.2 °F 2.9 °F 8.6 °F 85% 30.06 in 10.0 mi West 5.8 mph - N/A   Scattered Clouds
9:55 PM 12.2 °F 1.7 °F 8.6 °F 85% 30.06 in 10.0 mi West 6.9 mph - N/A   Mostly Cloudy
10:15 PM 12.2 °F 2.9 °F 8.6 °F 85% 30.06 in 10.0 mi West 5.8 mph - N/A   Mostly Cloudy
10:35 PM 12.2 °F 1.7 °F 8.6 °F 85% 30.05 in 10.0 mi West 6.9 mph - N/A   Mostly Cloudy
10:55 PM 12.2 °F 1.7 °F 6.8 °F 79% 30.04 in 10.0 mi West 6.9 mph - N/A   Scattered Clouds
11:15 PM 12.2 °F 4.3 °F 5.0 °F 73% 30.04 in 10.0 mi West 4.6 mph - N/A   Clear
11:35 PM 10.4 °F - 5.0 °F 79% 30.04 in 10.0 mi Calm Calm - N/A   Clear
11:55 PM 10.4 °F 4.0 °F 5.0 °F 79% 30.03 in 10.0 mi West 3.5 mph - N/A   Clear